Station Historical Data
Daily Summary for April 18, 2012 Units:  Metric    English   Both
« Previous Day
Next Day »
Daily Weekly Monthly Yearly Custom
  High: Low: Average:
Temperature: 21.3 °C 9.8 °C 15.3 °C
Dew Point: 12.9 °C 8 °C 9.8 °C
Humidity: 95% 45% 72%
Wind Speed: 19.3km/h 0km/h 6.6km/h
Wind Gust: 22.5km/h - -
Wind- - South
Pressure: 1020.9 hPa 1016.1 hPa -
Precipitation: 0 mm    
Historical Graphs
 
 
Tabular Data for April 18, 2012
Time Temperature Dew Point Pressure Wind Wind Speed Wind Gust Humidity Rainfall Rate (Hourly) Conditions
00:00 11.1 °C 10.3 °C 1020.9 hPa North 8 km/h 14.5 km/h 95% 0 mm
00:01 11.1 °C 10.3 °C 1020.9 hPa NW 8 km/h 14.5 km/h 95% 0 mm
00:06 11.1 °C 10.1 °C 1020.5 hPa NW 12.9 km/h 19.3 km/h 94% 0 mm
00:12 11.1 °C 10.1 °C 1020.5 hPa NNW 16.1 km/h 17.7 km/h 94% 0 mm
00:17 11.1 °C 10.2 °C 1020.9 hPa NW 8 km/h 17.7 km/h 94% 0 mm
00:22 11.2 °C 10.3 °C 1020.9 hPa NNW 17.7 km/h 17.7 km/h 94% 0 mm
00:27 11.2 °C 10.3 °C 1020.5 hPa NW 9.7 km/h 16.1 km/h 94% 0 mm
00:32 11.3 °C 10.3 °C 1020.5 hPa NW 11.3 km/h 16.1 km/h 94% 0 mm
00:37 11.3 °C 10.2 °C 1020.9 hPa NNW 11.3 km/h 20.9 km/h 93% 0 mm
00:42 11.4 °C 10.3 °C 1020.9 hPa NNW 12.9 km/h 16.1 km/h 93% 0 mm
00:47 11.4 °C 10.3 °C 1020.9 hPa North 9.7 km/h 19.3 km/h 93% 0 mm
00:52 11.4 °C 10.2 °C 1020.9 hPa NNW 11.3 km/h 11.3 km/h 92% 0 mm
00:57 11.4 °C 10.2 °C 1020.5 hPa NNW 6.4 km/h 14.5 km/h 92% 0 mm
01:02 11.4 °C 10.2 °C 1020.5 hPa NNE 11.3 km/h 12.9 km/h 92% 0 mm
01:07 11.5 °C 10.3 °C 1020.5 hPa NNE 6.4 km/h 11.3 km/h 92% 0 mm
01:12 11.5 °C 10.3 °C 1020.5 hPa NNW 8 km/h 12.9 km/h 92% 0 mm
01:17 11.6 °C 10.1 °C 1020.5 hPa NNW 11.3 km/h 12.9 km/h 91% 0 mm
01:23 11.6 °C 10.1 °C 1020.5 hPa NNW 6.4 km/h 14.5 km/h 91% 0 mm
01:28 11.6 °C 10.2 °C 1020.5 hPa NW 8 km/h 11.3 km/h 91% 0 mm
01:33 11.6 °C 10.2 °C 1020.5 hPa NNW 12.9 km/h 17.7 km/h 91% 0 mm
01:38 11.6 °C 10.3 °C 1020.5 hPa NW 8 km/h 14.5 km/h 92% 0 mm
01:43 11.6 °C 10.3 °C 1020.5 hPa NNE 8 km/h 20.9 km/h 92% 0 mm
01:48 11.6 °C 10.3 °C 1020.5 hPa NNW 9.7 km/h 14.5 km/h 92% 0 mm
01:53 11.7 °C 10.4 °C 1020.5 hPa NNE 4.8 km/h 12.9 km/h 92% 0 mm
01:58 11.7 °C 10.3 °C 1020.2 hPa North 6.4 km/h 14.5 km/h 91% 0 mm
02:03 11.8 °C 10.2 °C 1020.2 hPa NNE 8 km/h 12.9 km/h 90% 0 mm
02:08 11.8 °C 10.3 °C 1020.2 hPa North 12.9 km/h 12.9 km/h 90% 0 mm
02:13 11.8 °C 10.2 °C 1020.2 hPa NNE 4.8 km/h 12.9 km/h 90% 0 mm
02:14 11.8 °C 10.2 °C 1020.2 hPa North 6.4 km/h 12.9 km/h 90% 0 mm
02:19 11.8 °C 10.2 °C 1020.5 hPa NNW 4.8 km/h 8 km/h 90% 0 mm
02:24 11.8 °C 10.2 °C 1020.2 hPa NNW 12.9 km/h 12.9 km/h 90% 0 mm
02:29 11.8 °C 10 °C 1020.5 hPa NNW 8 km/h 11.3 km/h 89% 0 mm
02:34 11.7 °C 10.1 °C 1020.5 hPa NNW 4.8 km/h 9.7 km/h 90% 0 mm
02:39 11.7 °C 10.1 °C 1020.5 hPa NNW 4.8 km/h 9.7 km/h 90% 0 mm
02:44 11.7 °C 10.1 °C 1020.5 hPa NW 4.8 km/h 9.7 km/h 90% 0 mm
02:49 11.7 °C 10.1 °C 1020.5 hPa NW 4.8 km/h 9.7 km/h 90% 0 mm
02:54 11.6 °C 10.2 °C 1020.5 hPa North 11.3 km/h 11.3 km/h 91% 0 mm
02:59 11.6 °C 10.1 °C 1020.5 hPa North 8 km/h 8 km/h 91% 0 mm
03:04 11.5 °C 10.1 °C 1020.2 hPa NW 6.4 km/h 11.3 km/h 91% 0 mm
03:09 11.5 °C 10.1 °C 1020.2 hPa NNE 6.4 km/h 9.7 km/h 91% 0 mm
03:14 11.5 °C 10.1 °C 1020.2 hPa NNE 9.7 km/h 14.5 km/h 91% 0 mm
03:19 11.5 °C 10.1 °C 1019.9 hPa NNE 8 km/h 9.7 km/h 91% 0 mm
03:24 11.5 °C 9.9 °C 1019.9 hPa NNE 4.8 km/h 6.4 km/h 90% 0 mm
03:29 11.5 °C 9.9 °C 1019.9 hPa NE 6.4 km/h 6.4 km/h 90% 0 mm
03:34 11.6 °C 10 °C 1019.5 hPa North 6.4 km/h 8 km/h 90% 0 mm
03:39 11.6 °C 10 °C 1019.5 hPa North 6.4 km/h 14.5 km/h 90% 0 mm
03:44 11.6 °C 10 °C 1019.5 hPa NE 9.7 km/h 16.1 km/h 90% 0 mm
03:49 11.6 °C 10 °C 1019.2 hPa NNE 4.8 km/h 8 km/h 90% 0 mm
03:54 11.5 °C 9.9 °C 1019.2 hPa NNE 3.2 km/h 9.7 km/h 90% 0 mm
03:59 11.5 °C 9.7 °C 1019.2 hPa NNE 6.4 km/h 16.1 km/h 89% 0 mm
04:05 11.6 °C 9.8 °C 1019.2 hPa North 4.8 km/h 14.5 km/h 89% 0 mm
04:10 11.6 °C 9.6 °C 1018.8 hPa NE 8 km/h 22.5 km/h 88% 0 mm
04:15 11.6 °C 9.7 °C 1018.8 hPa NE 4.8 km/h 12.9 km/h 88% 0 mm
04:20 11.6 °C 9.7 °C 1018.8 hPa North 4.8 km/h 8 km/h 88% 0 mm
04:25 11.6 °C 9.8 °C 1018.8 hPa North 6.4 km/h 9.7 km/h 89% 0 mm
04:30 11.5 °C 9.7 °C 1019.2 hPa NNE 8 km/h 9.7 km/h 89% 0 mm
04:35 11.4 °C 9.7 °C 1019.2 hPa NNW 4.8 km/h 9.7 km/h 89% 0 mm
04:40 11.3 °C 9.6 °C 1019.2 hPa North 8 km/h 12.9 km/h 89% 0 mm
04:45 11.3 °C 9.7 °C 1019.2 hPa North 9.7 km/h 9.7 km/h 90% 0 mm
04:50 11.2 °C 9.7 °C 1019.2 hPa NW 4.8 km/h 12.9 km/h 90% 0 mm
04:55 11.2 °C 9.7 °C 1019.2 hPa NNW 6.4 km/h 11.3 km/h 90% 0 mm
05:00 11.2 °C 9.6 °C 1019.2 hPa NW 9.7 km/h 11.3 km/h 90% 0 mm
05:05 11.1 °C 9.6 °C 1019.2 hPa NW 6.4 km/h 12.9 km/h 90% 0 mm
05:10 11 °C 9.6 °C 1019.2 hPa NW 6.4 km/h 12.9 km/h 91% 0 mm
05:15 10.9 °C 9.6 °C 1019.2 hPa NNW 6.4 km/h 12.9 km/h 91% 0 mm
05:20 10.9 °C 9.7 °C 1019.5 hPa North 12.9 km/h 12.9 km/h 92% 0 mm
05:25 10.8 °C 9.6 °C 1019.2 hPa NNW 4.8 km/h 12.9 km/h 92% 0 mm
05:30 10.8 °C 9.6 °C 1019.2 hPa NNW 6.4 km/h 14.5 km/h 92% 0 mm
05:35 10.8 °C 9.4 °C 1019.2 hPa NW 6.4 km/h 14.5 km/h 91% 0 mm
05:40 10.7 °C 9.3 °C 1019.2 hPa NNW 9.7 km/h 14.5 km/h 91% 0 mm
05:45 10.7 °C 9.3 °C 1019.2 hPa North 12.9 km/h 17.7 km/h 91% 0 mm
05:50 10.8 °C 9.4 °C 1019.2 hPa NE 9.7 km/h 16.1 km/h 91% 0 mm
05:55 10.8 °C 9.2 °C 1019.2 hPa NNE 3.2 km/h 14.5 km/h 90% 0 mm
06:00 10.8 °C 9.2 °C 1019.2 hPa North 4.8 km/h 12.9 km/h 90% 0 mm
06:06 10.8 °C 9.1 °C 1019.2 hPa NE 9.7 km/h 12.9 km/h 89% 0 mm
06:11 10.9 °C 9.1 °C 1018.8 hPa ENE 8 km/h 16.1 km/h 88% 0 mm
06:16 11.1 °C 9.2 °C 1018.8 hPa North 9.7 km/h 16.1 km/h 88% 0 mm
06:21 11.2 °C 9.1 °C 1018.8 hPa NE 6.4 km/h 11.3 km/h 87% 0 mm
06:26 11.2 °C 9 °C 1018.8 hPa North 6.4 km/h 17.7 km/h 86% 0 mm
06:31 11.3 °C 9 °C 1018.8 hPa NE 6.4 km/h 14.5 km/h 86% 0 mm
06:36 11.2 °C 8.8 °C 1018.8 hPa NE 3.2 km/h 11.3 km/h 85% 0 mm
06:41 11.1 °C 8.9 °C 1019.2 hPa North 6.4 km/h 11.3 km/h 86% 0 mm
06:46 10.9 °C 8.7 °C 1019.2 hPa NNW 3.2 km/h 8 km/h 86% 0 mm
06:51 10.7 °C 8.6 °C 1019.2 hPa NW 6.4 km/h 8 km/h 87% 0 mm
06:56 10.5 °C 8.6 °C 1019.2 hPa NNW 4.8 km/h 6.4 km/h 88% 0 mm
07:01 10.4 °C 8.5 °C 1019.2 hPa NNW 4.8 km/h 6.4 km/h 88% 0 mm
07:06 10.2 °C 8.5 °C 1019.2 hPa North 3.2 km/h 6.4 km/h 89% 0 mm
07:11 10.2 °C 8.5 °C 1019.5 hPa North 6.4 km/h 6.4 km/h 89% 0 mm
07:16 10.2 °C 8.4 °C 1019.2 hPa NNE 3.2 km/h 8 km/h 89% 0 mm
07:21 10.1 °C 8.4 °C 1019.5 hPa NNW 3.2 km/h 8 km/h 89% 0 mm
07:26 10 °C 8.3 °C 1019.5 hPa North 3.2 km/h 6.4 km/h 89% 0 mm
07:32 9.9 °C 8.2 °C 1019.5 hPa North 3.2 km/h 4.8 km/h 89% 0 mm
07:37 9.8 °C 8.3 °C 1019.5 hPa North 1.6 km/h 4.8 km/h 90% 0 mm
07:42 9.8 °C 8.2 °C 1019.5 hPa NNE 1.6 km/h 6.4 km/h 90% 0 mm
07:47 9.8 °C 8.3 °C 1019.5 hPa NNE 3.2 km/h 8 km/h 90% 0 mm
07:52 10.1 °C 8.5 °C 1019.5 hPa NNE 6.4 km/h 9.7 km/h 90% 0 mm
07:57 10.3 °C 8.6 °C 1019.5 hPa NE 3.2 km/h 4.8 km/h 89% 0 mm
08:02 10.6 °C 8.7 °C 1019.9 hPa NNE 4.8 km/h 6.4 km/h 88% 0 mm
08:07 10.8 °C 8.9 °C 1019.9 hPa NNE 8 km/h 9.7 km/h 88% 0 mm
08:12 10.9 °C 8.8 °C 1019.9 hPa NNE 4.8 km/h 11.3 km/h 87% 0 mm
08:17 11.1 °C 9 °C 1019.9 hPa NNE 4.8 km/h 12.9 km/h 87% 0 mm
08:22 11.2 °C 9 °C 1019.9 hPa NE 8 km/h 8 km/h 86% 0 mm
08:27 11.4 °C 9.1 °C 1019.9 hPa North 4.8 km/h 11.3 km/h 86% 0 mm
08:32 11.6 °C 9.1 °C 1019.9 hPa NNE 3.2 km/h 9.7 km/h 85% 0 mm
08:38 11.8 °C 9.3 °C 1019.9 hPa NE 4.8 km/h 11.3 km/h 85% 0 mm
08:43 11.9 °C 9.3 °C 1019.9 hPa NNE 6.4 km/h 11.3 km/h 84% 0 mm
08:48 12.1 °C 9.5 °C 1019.9 hPa North 6.4 km/h 11.3 km/h 84% 0 mm
08:53 12.2 °C 9.2 °C 1019.9 hPa NW 6.4 km/h 16.1 km/h 82% 0 mm
08:58 12.3 °C 9.6 °C 1019.9 hPa NE 6.4 km/h 11.3 km/h 83% 0 mm
09:03 12.5 °C 9.5 °C 1019.9 hPa NNE 6.4 km/h 16.1 km/h 82% 0 mm
09:08 12.6 °C 9.4 °C 1019.9 hPa NE 4.8 km/h 19.3 km/h 81% 0 mm
09:13 12.7 °C 9.4 °C 1019.9 hPa NE 6.4 km/h 16.1 km/h 80% 0 mm
09:18 12.8 °C 9.7 °C 1019.9 hPa NE 3.2 km/h 12.9 km/h 81% 0 mm
09:23 13.1 °C 9.7 °C 1019.5 hPa ENE 11.3 km/h 14.5 km/h 80% 0 mm
09:28 13.2 °C 9.7 °C 1019.9 hPa NE 4.8 km/h 16.1 km/h 79% 0 mm
09:33 13.4 °C 9.8 °C 1019.9 hPa NNE 8 km/h 17.7 km/h 79% 0 mm
09:38 13.6 °C 9.8 °C 1019.9 hPa NE 8 km/h 11.3 km/h 78% 0 mm
09:43 13.8 °C 9.9 °C 1019.9 hPa NE 8 km/h 12.9 km/h 77% 0 mm
09:48 14 °C 10.1 °C 1019.9 hPa ENE 6.4 km/h 9.7 km/h 77% 0 mm
09:53 14.2 °C 10.3 °C 1019.9 hPa ENE 9.7 km/h 11.3 km/h 77% 0 mm
09:58 14.2 °C 9.9 °C 1019.9 hPa NW 4.8 km/h 17.7 km/h 75% 0 mm
10:03 14.3 °C 9.9 °C 1019.9 hPa NNW 8 km/h 11.3 km/h 75% 0 mm
10:08 14.4 °C 10.3 °C 1019.9 hPa NE 8 km/h 14.5 km/h 76% 0 mm
10:13 14.5 °C 10.1 °C 1019.9 hPa NNE 11.3 km/h 14.5 km/h 75% 0 mm
10:18 14.7 °C 10.6 °C 1019.9 hPa NW 8 km/h 11.3 km/h 76% 0 mm
10:24 14.8 °C 10.3 °C 1019.9 hPa NE 6.4 km/h 16.1 km/h 74% 0 mm
10:29 14.9 °C 10.7 °C 1019.9 hPa NNE 4.8 km/h 14.5 km/h 76% 0 mm
10:34 15.1 °C 10.3 °C 1019.9 hPa North 8 km/h 16.1 km/h 73% 0 mm
10:39 15.2 °C 10.2 °C 1019.9 hPa NNE 8 km/h 16.1 km/h 72% 0 mm
10:44 15.3 °C 10.3 °C 1019.9 hPa North 9.7 km/h 16.1 km/h 72% 0 mm
10:49 15.4 °C 10.6 °C 1019.9 hPa North 14.5 km/h 14.5 km/h 73% 0 mm
10:54 15.6 °C 10.7 °C 1019.9 hPa NNW 9.7 km/h 16.1 km/h 73% 0 mm
10:59 15.8 °C 11.2 °C 1019.9 hPa North 8 km/h 14.5 km/h 74% 0 mm
11:04 15.8 °C 10.6 °C 1019.9 hPa NNE 9.7 km/h 12.9 km/h 71% 0 mm
11:09 15.9 °C 11.1 °C 1019.9 hPa NNW 4.8 km/h 9.7 km/h 73% 0 mm
11:14 16.2 °C 11.2 °C 1019.9 hPa NNW 6.4 km/h 14.5 km/h 72% 0 mm
11:19 16.3 °C 11.3 °C 1019.9 hPa NNE 6.4 km/h 12.9 km/h 72% 0 mm
11:24 16.4 °C 10.7 °C 1019.9 hPa North 3.2 km/h 11.3 km/h 69% 0 mm
11:29 16.7 °C 11.2 °C 1019.9 hPa North 8 km/h 14.5 km/h 70% 0 mm
11:34 16.8 °C 10.7 °C 1019.9 hPa NE 8 km/h 14.5 km/h 67% 0 mm
11:39 16.9 °C 11.7 °C 1019.9 hPa NNW 11.3 km/h 14.5 km/h 71% 0 mm
11:44 17.1 °C 11.2 °C 1019.9 hPa NE 11.3 km/h 17.7 km/h 68% 0 mm
11:50 17.1 °C 10.4 °C 1019.9 hPa NNW 9.7 km/h 16.1 km/h 65% 0 mm
11:55 17.1 °C 10.7 °C 1019.5 hPa NNW 4.8 km/h 12.9 km/h 66% 0 mm
12:00 17.4 °C 11.5 °C 1019.5 hPa NNW 4.8 km/h 14.5 km/h 68% 0 mm
12:05 17.6 °C 10.9 °C 1019.5 hPa NNE 9.7 km/h 16.1 km/h 65% 0 mm
12:10 17.7 °C 11 °C 1019.5 hPa NNE 4.8 km/h 12.9 km/h 65% 0 mm
12:15 17.9 °C 11.7 °C 1019.5 hPa NE 9.7 km/h 12.9 km/h 67% 0 mm
12:20 17.9 °C 10.8 °C 1019.5 hPa North 8 km/h 14.5 km/h 63% 0 mm
12:25 17.8 °C 10.9 °C 1019.5 hPa NNE 9.7 km/h 14.5 km/h 64% 0 mm
12:30 18.1 °C 11.6 °C 1019.2 hPa NW 8 km/h 12.9 km/h 66% 0 mm
12:35 18.3 °C 11.2 °C 1019.5 hPa NNE 8 km/h 11.3 km/h 63% 0 mm
12:40 18.3 °C 10.7 °C 1019.2 hPa NNE 11.3 km/h 14.5 km/h 61% 0 mm
12:45 18.4 °C 11 °C 1019.2 hPa North 8 km/h 17.7 km/h 62% 0 mm
12:50 18.6 °C 11.2 °C 1019.2 hPa NE 12.9 km/h 19.3 km/h 62% 0 mm
12:55 18.6 °C 10.4 °C 1019.2 hPa NNE 8 km/h 12.9 km/h 59% 0 mm
13:00 18.7 °C 10.6 °C 1019.2 hPa NE 4.8 km/h 16.1 km/h 59% 0 mm
13:05 18.8 °C 10.8 °C 1019.2 hPa NNW 9.7 km/h 16.1 km/h 60% 0 mm
13:10 18.8 °C 11.2 °C 1019.2 hPa NNW 9.7 km/h 19.3 km/h 61% 0 mm
13:15 19 °C 10.3 °C 1018.8 hPa NW 12.9 km/h 17.7 km/h 57% 0 mm
13:20 19.1 °C 10.9 °C 1018.8 hPa NE 12.9 km/h 16.1 km/h 59% 0 mm
13:25 19.2 °C 11 °C 1018.8 hPa North 8 km/h 16.1 km/h 59% 0 mm
13:30 19.2 °C 11.5 °C 1018.8 hPa NW 12.9 km/h 12.9 km/h 61% 0 mm
13:35 19.5 °C 11 °C 1018.8 hPa NNW 9.7 km/h 16.1 km/h 58% 0 mm
13:40 19.7 °C 12.2 °C 1018.8 hPa NNE 9.7 km/h 12.9 km/h 62% 0 mm
13:45 19.7 °C 11.7 °C 1018.8 hPa North 14.5 km/h 14.5 km/h 60% 0 mm
13:48 19.7 °C 12 °C 1018.8 hPa NNE 8 km/h 14.5 km/h 61% 0 mm
13:53 19.8 °C 11.6 °C 1018.8 hPa WNW 6.4 km/h 14.5 km/h 59% 0 mm
13:58 19.9 °C 10.9 °C 1018.8 hPa NW 9.7 km/h 16.1 km/h 56% 0 mm
14:03 19.9 °C 11.7 °C 1018.5 hPa NNW 8 km/h 12.9 km/h 59% 0 mm
14:08 19.9 °C 11.4 °C 1018.5 hPa NNE 17.7 km/h 19.3 km/h 58% 0 mm
14:14 19.9 °C 10.9 °C 1018.5 hPa WNW 9.7 km/h 19.3 km/h 56% 0 mm
14:19 20.1 °C 11.6 °C 1018.5 hPa NNW 17.7 km/h 17.7 km/h 58% 0 mm
14:24 19.9 °C 10.7 °C 1018.5 hPa NW 11.3 km/h 19.3 km/h 55% 0 mm
14:29 20.2 °C 11.4 °C 1018.5 hPa WNW 3.2 km/h 6.4 km/h 57% 0 mm
14:34 20.3 °C 11 °C 1018.5 hPa NNE 8 km/h 14.5 km/h 55% 0 mm
14:39 20.4 °C 12.9 °C 1018.5 hPa North 11.3 km/h 19.3 km/h 62% 0 mm
14:44 20.3 °C 10.9 °C 1018.2 hPa NNE 4.8 km/h 17.7 km/h 55% 0 mm
14:49 20.3 °C 11 °C 1018.2 hPa NE 8 km/h 9.7 km/h 55% 0 mm
14:54 20.4 °C 11.6 °C 1018.2 hPa North 12.9 km/h 16.1 km/h 57% 0 mm
14:59 20.6 °C 11.3 °C 1017.8 hPa NNW 9.7 km/h 20.9 km/h 55% 0 mm
15:04 20.5 °C 10.9 °C 1017.8 hPa NNW 17.7 km/h 19.3 km/h 54% 0 mm
15:09 20.4 °C 11.4 °C 1017.8 hPa NW 8 km/h 14.5 km/h 56% 0 mm
15:14 20.6 °C 10.7 °C 1017.8 hPa North 11.3 km/h 12.9 km/h 53% 0 mm
15:19 20.6 °C 11.3 °C 1017.8 hPa NW 14.5 km/h 20.9 km/h 55% 0 mm
15:24 20.5 °C 10.3 °C 1017.8 hPa NE 6.4 km/h 14.5 km/h 52% 0 mm
15:29 20.7 °C 10.8 °C 1017.8 hPa NNW 19.3 km/h 19.3 km/h 53% 0 mm
15:34 20.8 °C 10.9 °C 1017.5 hPa North 11.3 km/h 16.1 km/h 53% 0 mm
15:40 20.8 °C 11.4 °C 1017.5 hPa NNW 11.3 km/h 22.5 km/h 55% 0 mm
15:45 20.9 °C 11 °C 1017.2 hPa NNW 1.6 km/h 14.5 km/h 53% 0 mm
15:46 21 °C 11.1 °C 1017.2 hPa NE 8 km/h 8 km/h 53% 0 mm
15:51 20.9 °C 10.1 °C 1017.2 hPa NW 9.7 km/h 17.7 km/h 50% 0 mm
15:56 21.1 °C 10.8 °C 1017.2 hPa NNW 9.7 km/h 14.5 km/h 52% 0 mm
16:01 20.9 °C 10.4 °C 1017.2 hPa NW 14.5 km/h 17.7 km/h 51% 0 mm
16:06 21.1 °C 11.2 °C 1016.8 hPa NNE 11.3 km/h 14.5 km/h 53% 0 mm
16:11 21.1 °C 10.6 °C 1016.8 hPa NNE 8 km/h 16.1 km/h 51% 0 mm
16:16 21.1 °C 10.8 °C 1016.8 hPa NNE 8 km/h 14.5 km/h 52% 0 mm
16:21 21.2 °C 10.4 °C 1016.8 hPa WNW 11.3 km/h 14.5 km/h 50% 0 mm
16:26 21.3 °C 11.3 °C 1016.8 hPa NNE 8 km/h 12.9 km/h 53% 0 mm
16:31 21.3 °C 9.9 °C 1016.5 hPa North 3.2 km/h 12.9 km/h 48% 0 mm
16:36 21.2 °C 10.7 °C 1016.5 hPa NE 6.4 km/h 11.3 km/h 51% 0 mm
16:41 21.3 °C 10.5 °C 1016.5 hPa NE 8 km/h 19.3 km/h 50% 0 mm
16:47 21.1 °C 9.7 °C 1016.5 hPa North 8 km/h 14.5 km/h 48% 0 mm
16:52 21.1 °C 10 °C 1016.5 hPa North 6.4 km/h 9.7 km/h 49% 0 mm
16:54 21.2 °C 10.7 °C 1016.5 hPa NW 11.3 km/h 14.5 km/h 51% 0 mm
16:59 21.1 °C 10 °C 1016.5 hPa North 8 km/h 17.7 km/h 49% 0 mm
17:04 20.6 °C 9.2 °C 1016.5 hPa North 8 km/h 9.7 km/h 48% 0 mm
17:09 20.8 °C 10.6 °C 1016.5 hPa NW 8 km/h 11.3 km/h 52% 0 mm
17:14 21.2 °C 10.7 °C 1016.5 hPa NW 3.2 km/h 12.9 km/h 51% 0 mm
17:19 21.3 °C 9.9 °C 1016.1 hPa ENE 8 km/h 12.9 km/h 48% 0 mm
17:24 21.2 °C 9.1 °C 1016.1 hPa NE 8 km/h 17.7 km/h 46% 0 mm
17:29 21.1 °C 9.4 °C 1016.1 hPa NNE 9.7 km/h 9.7 km/h 47% 0 mm
17:34 21.2 °C 11 °C 1016.1 hPa NNE 8 km/h 14.5 km/h 52% 0 mm
17:39 21.2 °C 9.8 °C 1016.1 hPa NNW 8 km/h 14.5 km/h 48% 0 mm
17:44 21.1 °C 9.4 °C 1016.1 hPa NNE 9.7 km/h 11.3 km/h 47% 0 mm
17:49 21.2 °C 10.3 °C 1016.1 hPa NNW 12.9 km/h 17.7 km/h 50% 0 mm
17:54 21.1 °C 10 °C 1016.1 hPa North 14.5 km/h 14.5 km/h 49% 0 mm
18:00 21.2 °C 9.4 °C 1016.1 hPa NNW 11.3 km/h 11.3 km/h 47% 0 mm
18:05 21.1 °C 9.7 °C 1016.1 hPa NW 11.3 km/h 14.5 km/h 48% 0 mm
18:10 21.1 °C 9 °C 1016.1 hPa NNE 6.4 km/h 12.9 km/h 46% 0 mm
18:15 21.1 °C 9.6 °C 1016.1 hPa NNW 8 km/h 11.3 km/h 48% 0 mm
18:20 21.2 °C 9.4 °C 1016.1 hPa NNW 9.7 km/h 12.9 km/h 47% 0 mm
18:25 21.2 °C 9.7 °C 1016.1 hPa NW 8 km/h 9.7 km/h 48% 0 mm
18:30 21.2 °C 9.1 °C 1016.1 hPa NNW 3.2 km/h 11.3 km/h 46% 0 mm
18:35 21.1 °C 10 °C 1016.1 hPa NNW 8 km/h 14.5 km/h 49% 0 mm
18:40 21.1 °C 9.9 °C 1016.1 hPa NNW 6.4 km/h 11.3 km/h 49% 0 mm
18:45 20.9 °C 8.9 °C 1016.1 hPa NNE 6.4 km/h 11.3 km/h 46% 0 mm
18:46 20.9 °C 8.9 °C 1016.1 hPa North 3.2 km/h 9.7 km/h 46% 0 mm
18:51 20.9 °C 8.8 °C 1016.1 hPa North 3.2 km/h 8 km/h 46% 0 mm
18:56 20.8 °C 8.4 °C 1016.1 hPa North 6.4 km/h 11.3 km/h 45% 0 mm
19:01 20.8 °C 9.1 °C 1016.1 hPa North 9.7 km/h 11.3 km/h 47% 0 mm
19:06 20.7 °C 9 °C 1016.1 hPa NNE 3.2 km/h 11.3 km/h 47% 0 mm
19:11 20.7 °C 9.3 °C 1016.1 hPa North 3.2 km/h 8 km/h 48% 0 mm
19:16 20.6 °C 8.9 °C 1016.1 hPa North 8 km/h 9.7 km/h 47% 0 mm
19:21 20.6 °C 9.2 °C 1016.1 hPa NNE 3.2 km/h 6.4 km/h 48% 0 mm
19:26 20.4 °C 9.1 °C 1016.1 hPa North 8 km/h 8 km/h 48% 0 mm
19:32 20.3 °C 9.2 °C 1016.1 hPa NNW 3.2 km/h 8 km/h 49% 0 mm
19:37 20.2 °C 9.2 °C 1016.1 hPa NNW 4.8 km/h 6.4 km/h 49% 0 mm
19:42 20.2 °C 9.1 °C 1016.1 hPa Calm   3.2 km/h 49% 0 mm
19:47 20.2 °C 9.5 °C 1016.1 hPa NNW 1.6 km/h 3.2 km/h 50% 0 mm
19:52 20.1 °C 9.4 °C 1016.1 hPa Calm   3.2 km/h 50% 0 mm
19:57 19.9 °C 9.2 °C 1016.1 hPa North 1.6 km/h 4.8 km/h 50% 0 mm
20:02 19.6 °C 8.9 °C 1016.1 hPa North 4.8 km/h 4.8 km/h 50% 0 mm
20:07 19.2 °C 8.8 °C 1016.1 hPa North 3.2 km/h 4.8 km/h 51% 0 mm
20:12 18.8 °C 8.8 °C 1016.1 hPa NNW 1.6 km/h 3.2 km/h 52% 0 mm
20:17 18.4 °C 8.9 °C 1016.1 hPa North 1.6 km/h 3.2 km/h 54% 0 mm
20:22 18 °C 8.8 °C 1016.1 hPa North 1.6 km/h 1.6 km/h 55% 0 mm
20:27 17.7 °C 8.5 °C 1016.1 hPa Calm   1.6 km/h 55% 0 mm
20:32 17.5 °C 8.4 °C 1016.1 hPa North 1.6 km/h 1.6 km/h 55% 0 mm
20:37 17.3 °C 8.4 °C 1016.1 hPa Calm   1.6 km/h 56% 0 mm
20:42 17.1 °C 8.5 °C 1016.1 hPa Calm     57% 0 mm
20:47 16.7 °C 8.4 °C 1016.1 hPa North 1.6 km/h 1.6 km/h 58% 0 mm
20:52 16.6 °C 8.3 °C 1016.1 hPa North 1.6 km/h 1.6 km/h 58% 0 mm
20:57 16.5 °C 8.7 °C 1016.5 hPa Calm   1.6 km/h 60% 0 mm
21:02 16.3 °C 8.5 °C 1016.5 hPa East 1.6 km/h 3.2 km/h 60% 0 mm
21:07 16.3 °C 8.6 °C 1016.5 hPa ENE 1.6 km/h 3.2 km/h 60% 0 mm
21:12 16.3 °C 8.5 °C 1016.5 hPa North 1.6 km/h 3.2 km/h 60% 0 mm
21:17 16.1 °C 8.6 °C 1016.5 hPa Calm   1.6 km/h 61% 0 mm
21:22 15.7 °C 8.4 °C 1016.5 hPa Calm     62% 0 mm
21:27 15.3 °C 8.5 °C 1016.5 hPa Calm   1.6 km/h 64% 0 mm
21:33 14.9 °C 8.8 °C 1016.8 hPa Calm     67% 0 mm
21:38 14.4 °C 8.8 °C 1016.8 hPa North 1.6 km/h 1.6 km/h 69% 0 mm
21:43 14.2 °C 9 °C 1016.8 hPa North 1.6 km/h 1.6 km/h 71% 0 mm
21:48 13.9 °C 8.9 °C 1016.8 hPa Calm   1.6 km/h 72% 0 mm
21:53 13.7 °C 8.9 °C 1016.8 hPa North 1.6 km/h 1.6 km/h 73% 0 mm
21:58 13.6 °C 8.6 °C 1016.8 hPa North 1.6 km/h 1.6 km/h 72% 0 mm
22:03 13.6 °C 8.9 °C 1017.2 hPa Calm   1.6 km/h 73% 0 mm
22:08 13.6 °C 8.6 °C 1017.2 hPa Calm     72% 0 mm
22:13 13.4 °C 8.8 °C 1017.2 hPa Calm   1.6 km/h 74% 0 mm
22:18 13.2 °C 8.7 °C 1017.2 hPa Calm     74% 0 mm
22:23 13.2 °C 8.7 °C 1017.2 hPa Calm   1.6 km/h 74% 0 mm
22:28 13 °C 8.5 °C 1017.2 hPa Calm     74% 0 mm
22:33 12.6 °C 8.2 °C 1017.2 hPa Calm     75% 0 mm
22:38 12.3 °C 8.4 °C 1017.2 hPa Calm     77% 0 mm
22:43 12.4 °C 8.3 °C 1017.2 hPa Calm     76% 0 mm
22:48 12.4 °C 8.5 °C 1017.2 hPa North 1.6 km/h 1.6 km/h 77% 0 mm
22:53 12.5 °C 8.6 °C 1017.2 hPa Calm   1.6 km/h 77% 0 mm
22:58 12.6 °C 8.6 °C 1017.2 hPa Calm   1.6 km/h 77% 0 mm
23:03 12.7 °C 8.4 °C 1017.2 hPa Calm   1.6 km/h 75% 0 mm
23:08 12.7 °C 8.6 °C 1017.2 hPa Calm     76% 0 mm
23:13 12.5 °C 8.4 °C 1017.2 hPa Calm   1.6 km/h 76% 0 mm
23:18 12.6 °C 8.4 °C 1016.8 hPa Calm   1.6 km/h 76% 0 mm
23:23 12.7 °C 8.3 °C 1016.8 hPa Calm   1.6 km/h 75% 0 mm
23:28 12.6 °C 8.4 °C 1017.2 hPa Calm     76% 0 mm
23:33 12.1 °C 8.8 °C 1016.8 hPa Calm   1.6 km/h 80% 0 mm
23:39 11.8 °C 8.3 °C 1016.8 hPa Calm     79% 0 mm
23:44 11.8 °C 8.3 °C 1016.8 hPa Calm     79% 0 mm
23:49 12 °C 8.3 °C 1016.8 hPa Calm   1.6 km/h 78% 0 mm
23:54 12.1 °C 8.2 °C 1016.8 hPa Calm   1.6 km/h 77% 0 mm
23:59 12.1 °C 8 °C 1016.8 hPa Calm     76% 0 mm
Compliments of Weather Underground